| time (UTC) | temp C | wind direction | speed KPH | gust KPH | rain 1hr cm | rain 24hr cm | rain mn cm | humidity % | barometer mb |
| 20260506030004 | 20 | 126 | 0.0 | 3.2 | 0.00 | 0.03 | 0.03 | 55 | 1009.6 |
| 20260506025004 | 20 | 134 | 0.0 | 1.6 | 0.00 | 0.03 | 0.03 | 55 | 1009.6 |
| 20260506024004 | 20 | 167 | 0.0 | 3.2 | 0.00 | 0.03 | 0.03 | 54 | 1009.7 |
| 20260506023004 | 20 | 123 | 0.0 | 1.6 | 0.00 | 0.03 | 0.03 | 54 | 1009.8 |
| 20260506022004 | 21 | 0 | 0.0 | 0.0 | 0.00 | 0.03 | 0.03 | 53 | 1009.6 |
| 20260506020004 | 21 | 170 | 0.0 | 1.6 | 0.00 | 0.03 | 0.03 | 51 | 1009.6 |
| 20260506015003 | 21 | 160 | 0.0 | 1.6 | 0.00 | 0.03 | 0.03 | 51 | 1009.6 |
| 20260506014005 | 21 | 0 | 0.0 | 0.0 | 0.00 | 0.03 | 0.03 | 52 | 1009.6 |
| 20260506013004 | 21 | 86 | 0.0 | 1.6 | 0.00 | 0.03 | 0.03 | 52 | 1009.4 |
| 20260506011003 | 21 | 221 | 0.0 | 4.8 | 0.00 | 0.03 | 0.03 | 51 | 1009.2 |
| 20260506010004 | 21 | 62 | 0.0 | 1.6 | 0.00 | 0.03 | 0.03 | 49 | 1009.0 |
| 20260506004004 | 22 | 48 | 0.0 | 1.6 | 0.00 | 0.03 | 0.03 | 47 | 1008.9 |
| 20260506003004 | 22 | 138 | 0.0 | 1.6 | 0.00 | 0.03 | 0.03 | 46 | 1008.7 |
| 20260506002003 | 22 | 138 | 0.0 | 4.8 | 0.00 | 0.03 | 0.03 | 46 | 1008.6 |
| 20260506001003 | 22 | 243 | 0.0 | 1.6 | 0.00 | 0.03 | 0.03 | 46 | 1008.5 |
| 20260506000004 | 22 | 119 | 0.0 | 3.2 | 0.00 | 0.03 | 0.03 | 46 | 1008.5 |
| 20260505235003 | 23 | 146 | 0.0 | 1.6 | 0.00 | 0.03 | 0.03 | 45 | 1008.4 |
| 20260505234003 | 23 | 145 | 0.0 | 1.6 | 0.00 | 0.03 | 0.03 | 44 | 1008.2 |
| 20260505233004 | 23 | 159 | 0.0 | 1.6 | 0.00 | 0.03 | 0.03 | 42 | 1008.3 |
| 20260505230004 | 24 | 184 | 0.0 | 3.2 | 0.00 | 0.03 | 0.03 | 40 | 1008.3 |
| 20260505225003 | 25 | 49 | 0.0 | 4.8 | 0.00 | 0.03 | 0.03 | 39 | 1008.1 |
| 20260505224004 | 25 | 0 | 0.0 | 0.0 | 0.00 | 0.03 | 0.03 | 40 | 1008.0 |
| 20260505223004 | 25 | 149 | 0.0 | 1.6 | 0.00 | 0.03 | 0.03 | 41 | 1007.9 |
| 20260505222003 | 25 | 183 | 0.0 | 3.2 | 0.00 | 0.03 | 0.03 | 39 | 1007.9 |
| 20260505221004 | 25 | 105 | 0.0 | 8.0 | 0.00 | 0.03 | 0.03 | 39 | 1007.9 |
| 20260505220004 | 25 | 138 | 0.0 | 1.6 | 0.00 | 0.03 | 0.03 | 41 | 1008.1 |
| 20260505215004 | 26 | 0 | 0.0 | 0.0 | 0.00 | 0.03 | 0.03 | 39 | 1008.2 |
| 20260505214004 | 26 | 120 | 0.0 | 1.6 | 0.00 | 0.03 | 0.03 | 39 | 1008.1 |
| 20260505213004 | 26 | 0 | 0.0 | 0.0 | 0.00 | 0.03 | 0.03 | 39 | 1008.1 |
| 20260505212004 | 26 | 16 | 0.0 | 11.3 | 0.00 | 0.03 | 0.03 | 38 | 1007.9 |
| 20260505210003 | 26 | 0 | 0.0 | 0.0 | 0.00 | 0.03 | 0.03 | 39 | 1007.8 |
| 20260505205003 | 26 | 322 | 0.0 | 6.4 | 0.00 | 0.03 | 0.03 | 38 | 1007.8 |
| 20260505204003 | 27 | 137 | 0.0 | 3.2 | 0.00 | 0.03 | 0.03 | 36 | 1007.8 |
| 20260505203004 | 28 | 98 | 0.0 | 1.6 | 0.00 | 0.03 | 0.03 | 36 | 1007.8 |
| 20260505201004 | 27 | 207 | 0.0 | 3.2 | 0.00 | 0.03 | 0.03 | 36 | 1007.9 |
| 20260505200004 | 27 | 171 | 0.0 | 11.3 | 0.00 | 0.03 | 0.03 | 36 | 1008.1 |
| 20260505195004 | 27 | 191 | 0.0 | 6.4 | 0.00 | 0.03 | 0.03 | 34 | 1007.9 |
| 20260505194004 | 27 | 0 | 0.0 | 0.0 | 0.00 | 0.03 | 0.03 | 33 | 1008.1 |
| 20260505193004 | 27 | 106 | 0.0 | 4.8 | 0.00 | 0.03 | 0.03 | 34 | 1007.9 |
| 20260505192004 | 27 | 72 | 0.0 | 6.4 | 0.00 | 0.03 | 0.03 | 35 | 1008.1 |
| 20260505191004 | 27 | 226 | 0.0 | 4.8 | 0.00 | 0.03 | 0.03 | 34 | 1008.2 |
| 20260505190004 | 27 | 185 | 0.0 | 16.1 | 0.00 | 0.03 | 0.03 | 35 | 1008.2 |
| 20260505185005 | 27 | 178 | 0.0 | 14.5 | 0.00 | 0.03 | 0.03 | 37 | 1008.3 |
| 20260505184004 | 27 | 344 | 0.0 | 6.4 | 0.00 | 0.03 | 0.03 | 33 | 1008.3 |
| 20260505183004 | 28 | 28 | 0.0 | 8.0 | 0.00 | 0.03 | 0.03 | 32 | 1008.3 |
| 20260505182004 | 28 | 169 | 0.0 | 8.0 | 0.00 | 0.03 | 0.03 | 38 | 1008.6 |
| 20260505180004 | 27 | 104 | 0.0 | 8.0 | 0.00 | 0.03 | 0.03 | 35 | 1009.0 |
| 20260505175004 | 27 | 214 | 0.0 | 6.4 | 0.00 | 0.03 | 0.03 | 41 | 1009.0 |
| 20260505174004 | 27 | 272 | 0.0 | 9.7 | 0.00 | 0.03 | 0.03 | 39 | 1009.0 |
| 20260505173004 | 27 | 8 | 0.0 | 1.6 | 0.00 | 0.03 | 0.03 | 43 | 1009.1 |
| 20260505172004 | 26 | 0 | 0.0 | 0.0 | 0.00 | 0.03 | 0.03 | 41 | 1009.3 |
| 20260505171004 | 26 | 146 | 0.0 | 1.6 | 0.00 | 0.03 | 0.03 | 43 | 1009.3 |
| 20260505165004 | 26 | 6 | 0.0 | 6.4 | 0.00 | 0.03 | 0.03 | 45 | 1009.6 |
| 20260505164004 | 26 | 0 | 0.0 | 0.0 | 0.00 | 0.03 | 0.03 | 43 | 1009.8 |
| 20260505163004 | 26 | 74 | 0.0 | 1.6 | 0.00 | 0.03 | 0.03 | 46 | 1010.0 |
| 20260505161004 | 26 | 0 | 0.0 | 0.0 | 0.00 | 0.03 | 0.03 | 43 | 1010.1 |
| 20260505153003 | 25 | 0 | 0.0 | 0.0 | 0.00 | 0.03 | 0.03 | 47 | 1010.3 |
| 20260505152004 | 24 | 339 | 0.0 | 1.6 | 0.00 | 0.03 | 0.03 | 46 | 1010.3 |
| 20260505151004 | 23 | 355 | 0.0 | 3.2 | 0.00 | 0.03 | 0.03 | 50 | 1010.4 |
| 20260505125003 | 17 | 110 | 0.0 | 1.6 | 0.00 | 0.03 | 0.03 | 21 | 1011.0 |
| 20260505124004 | 16 | 0 | 0.0 | 0.0 | 0.00 | 0.03 | 0.03 | 11 | 1010.8 |
| 20260505122004 | 15 | 0 | 0.0 | 0.0 | 0.00 | 0.03 | 0.03 | 1 | 1011.0 |
| 20260505120005 | 15 | 0 | 0.0 | 0.0 | 0.00 | 0.03 | 0.03 | 2 | 1010.8 |
| 20260505115004 | 14 | 151 | 0.0 | 3.2 | 0.00 | 0.03 | 0.03 | 1 | 1010.7 |
| 20260505114004 | 14 | 181 | 0.0 | 1.6 | 0.00 | 0.03 | 0.03 | 1 | 1010.6 |
| 20260505113004 | 13 | 0 | 0.0 | 0.0 | 0.00 | 0.03 | 0.03 | 1 | 1010.6 |
| 20260505112004 | 13 | 178 | 0.0 | 3.2 | 0.00 | 0.03 | 0.03 | 1 | 1010.6 |
| 20260505101004 | 12 | 0 | 0.0 | 0.0 | 0.03 | 0.03 | 0.03 | 1 | 1010.3 |
| 20260505095004 | 12 | 0 | 0.0 | 0.0 | 0.03 | 0.03 | 0.03 | 1 | 1010.4 |
| 20260505094004 | 13 | 0 | 0.0 | 0.0 | 0.03 | 0.03 | 0.03 | 1 | 1010.4 |
| 20260505093004 | 13 | 0 | 0.0 | 0.0 | 0.03 | 0.03 | 0.03 | 1 | 1010.2 |
| 20260505092004 | 13 | 0 | 0.0 | 0.0 | 0.00 | 0.00 | 0.00 | 1 | 1010.5 |
| 20260505091004 | 13 | 0 | 0.0 | 0.0 | 0.00 | 0.00 | 0.00 | 1 | 1010.4 |
| 20260505090004 | 13 | 0 | 0.0 | 0.0 | 0.00 | 0.00 | 0.00 | 1 | 1010.4 |
| 20260505085003 | 13 | 0 | 0.0 | 0.0 | 0.00 | 0.00 | 0.00 | 1 | 1010.3 |
| 20260505084003 | 13 | 0 | 0.0 | 0.0 | 0.00 | 0.00 | 0.00 | 1 | 1010.0 |
| 20260505082004 | 14 | 0 | 0.0 | 0.0 | 0.00 | 0.00 | 0.00 | 18 | 1009.7 |
| 20260505081003 | 14 | 0 | 0.0 | 0.0 | 0.00 | 0.00 | 0.00 | 40 | 1009.7 |
| 20260505080004 | 14 | 0 | 0.0 | 0.0 | 0.00 | 0.00 | 0.00 | 40 | 1009.7 |
| 20260505075003 | 14 | 0 | 0.0 | 0.0 | 0.00 | 0.00 | 0.00 | 43 | 1009.7 |
| 20260505074004 | 14 | 0 | 0.0 | 0.0 | 0.00 | 0.00 | 0.00 | 45 | 1009.8 |
| 20260505073004 | 14 | 0 | 0.0 | 0.0 | 0.00 | 0.00 | 0.00 | 46 | 1009.8 |
| 20260505072004 | 14 | 0 | 0.0 | 0.0 | 0.00 | 0.00 | 0.00 | 47 | 1009.7 |
| 20260505071004 | 14 | 0 | 0.0 | 0.0 | 0.00 | 0.00 | 0.00 | 46 | 1009.7 |
| 20260505070004 | 14 | 0 | 0.0 | 0.0 | 0.00 | 0.00 | 0.00 | 47 | 1009.8 |
| 20260505065003 | 14 | 0 | 0.0 | 0.0 | 0.00 | 0.00 | 0.00 | 47 | 1009.8 |
| 20260505064004 | 14 | 0 | 0.0 | 0.0 | 0.00 | 0.00 | 0.00 | 48 | 1009.8 |
| 20260505063003 | 14 | 0 | 0.0 | 0.0 | 0.00 | 0.00 | 0.00 | 49 | 1009.8 |
| 20260505062005 | 14 | 0 | 0.0 | 0.0 | 0.00 | 0.00 | 0.00 | 51 | 1009.9 |
| 20260505060004 | 13 | 0 | 0.0 | 0.0 | 0.00 | 0.00 | 0.00 | 51 | 1009.9 |
| 20260505055004 | 13 | 0 | 0.0 | 0.0 | 0.00 | 0.00 | 0.00 | 51 | 1009.7 |
| 20260505054003 | 13 | 0 | 0.0 | 0.0 | 0.00 | 0.00 | 0.00 | 51 | 1009.8 |
| 20260505053004 | 13 | 0 | 0.0 | 0.0 | 0.00 | 0.00 | 0.00 | 52 | 1009.8 |
| 20260505052003 | 13 | 0 | 0.0 | 0.0 | 0.00 | 0.00 | 0.00 | 54 | 1009.9 |
| 20260505051004 | 14 | 0 | 0.0 | 0.0 | 0.00 | 0.00 | 0.00 | 56 | 1009.8 |
| 20260505041004 | 15 | 168 | 0.0 | 1.6 | 0.00 | 0.00 | 0.00 | 56 | 1009.7 |
| 20260505040005 | 15 | 142 | 0.0 | 1.6 | 0.00 | 0.00 | 0.00 | 56 | 1009.7 |
| 20260505035004 | 15 | 139 | 0.0 | 1.6 | 0.00 | 0.00 | 0.00 | 56 | 1009.6 |
| 20260505034004 | 15 | 0 | 0.0 | 0.0 | 0.00 | 0.00 | 0.00 | 56 | 1009.7 |
| 20260505032004 | 15 | 0 | 0.0 | 0.0 | 0.00 | 0.00 | 0.00 | 56 | 1009.9 |
| 20260505031004 | 15 | 0 | 0.0 | 0.0 | 0.00 | 0.00 | 0.00 | 56 | 1010.0 |